Location: Cornospital
(48.0620°N, 3.3837°W)
Time: 20:56:02
(UTC+00:00)

Cosmos 1000 Rocket - Pass Details

Date: 17 June 2021
Orbit: 955 x 991 km, 82.9° (Epoch: 03 August)

Event Time Altitude Azimuth Distance (km) Brightness Sun altitude
Exits shadow 21:34:29 - 181° (S) 3,159 6.7 -10.0°
Reaches altitude 10° 21:35:45 10° 180° (S) 2,684 6.3 -10.2°
Maximum altitude 21:41:52 76° 96° (E) 987 4.5 -10.8°
Drops below altitude 10° 21:48:00 10° 12° (NNE) 2,695 7.5 -11.3°
Sets 21:50:31 0° 11° (N) 3,646 8.3 -11.6°
